Location: Cold Norton
(51.6667°N, 0.6667°E)
Time: 05:21:49
(UTC+00:00)

ATLAS 2AS CENTAUR R/B - Pass Details

Date: 18 November 2025
Orbit: 1047 x 1163 km, 63.7° (Epoch: 10 December)

Event Time Altitude Azimuth Distance (km) Brightness Sun altitude
Rises 17:28:53 0° 308° (NW) 3,868 6.2 -13.0°
Reaches altitude 10° 17:31:45 10° 315° (NW) 2,898 5.4 -13.5°
Maximum altitude 17:38:10 41° 25° (NNE) 1,484 3.2 -14.4°
Enters shadow 17:42:15 21° 84° (E) 2,165 3.7 -15.1°
